SENTINEL-6

Last updated on Thu Jul 03 2025 00:02:30 GMT+0000 (Coordinated Universal Time)

1 46984U 20086A 25183.30529689 -.00000044 00000+0 73082-4 0 9990 2 46984 66.0402 141.7633 0008072 269.9809 90.0282 12.80929454215515
UTC large
Height (km)
Speed (km/s)
/
Latitude / Longitude
Inclination (degrees)
Orbital Period (minutes)
Azimuth
Elevation
Range (km)
Doppler Factor

Next 0 passes for location: London (51.5072 / 0.1276)

Sorry there are no passes over London.